Location: Newark
(34.9471°N, 136.1778°E)
Time: 22:38:55
(UTC+00:00)

METEOR M2 - Visible Passes

Search period start: 21 February 2020 00:00
Search period end: 02 March 2020 00:00
Orbit: 820 x 826 km, 98.5° (Epoch: 21 February)

Date Brightness Start Highest point End Pass type
(mag) Time Alt. Az. Time Alt. Az. Time Alt. Az.
21 Feb ? 10:11:53 25° SE 10:14:40 46° ENE 10:19:48 10° N visible
21 Feb ? 11:53:17 16° WSW 11:55:00 19° W 11:58:44 10° NW visible
22 Feb ? 09:51:32 16° ESE 09:54:55 30° ENE 09:59:32 10° N visible
22 Feb ? 11:32:55 23° SW 11:34:57 29° W 11:39:38 10° NW visible
23 Feb ? 09:31:26 10° ESE 09:35:13 20° ENE 09:39:00 10° NNE visible
23 Feb ? 11:12:35 28° SSW 11:14:58 46° W 11:20:09 10° NNW visible
24 Feb ? 09:13:15 10° E 09:15:34 13° ENE 09:17:54 10° NE visible
24 Feb ? 10:52:15 29° S 10:55:02 73° WSW 11:00:26 10° NNW visible
25 Feb ? 10:31:55 24° SSE 10:35:10 73° ENE 10:40:33 10° N visible
25 Feb ? 12:14:12 10° WSW 12:15:47 11° W 12:17:22 10° WNW visible
26 Feb ? 10:11:35 18° SE 10:15:21 47° ENE 10:20:29 10° N visible
26 Feb ? 11:53:00 13° SW 11:55:41 18° W 11:59:21 10° NW visible
27 Feb ? 09:51:16 12° SE 09:55:35 31° ENE 10:00:14 10° N visible
27 Feb ? 11:32:41 18° SW 11:35:38 29° W 11:40:16 10° NW visible
28 Feb ? 09:32:02 10° ESE 09:35:52 20° ENE 09:39:44 10° NNE visible
28 Feb ? 11:12:22 21° SSW 11:15:39 45° W 11:20:49 10° NNW visible
29 Feb ? 09:13:47 10° E 09:16:14 13° ENE 09:18:40 10° NE visible
29 Feb ? 10:52:04 21° S 10:55:43 71° WSW 11:01:07 10° NNW visible
01 Mar ? 10:31:47 18° SSE 10:35:50 75° ENE 10:41:14 10° N visible
01 Mar ? 12:15:08 10° WSW 12:16:28 11° W 12:17:49 10° WNW visible
